Retour au catalogue

ONEWEB-0326

ActifCommunicationsPO
NORAD 49195·PAYLOAD·🇬🇧 United Kingdom

Lancé Sep 14, 2021 depuis Baikonur Cosmodrome

Loading…

Prochains Passages (prochaines 24 heures)

TLE

FraisSource: CelesTrak SupGP

Époque: Sep 15, 2026, 02:01 UTC

1 49195C 21083K   26258.08456433  .00002575  00000+0  65386-2 0  2584
2 49195  87.9170 317.5975 0002158 103.6112 337.1980 13.18686867    15

Suivez ONEWEB-0326 en temps réel avec AllMySat

Download on the App Store